Find Starlink 11236

NORAD ID: 61062 Int'l Des: 2024-164 Owner: SPXS Country: US Constellation: starlink operational
LEOCIRCULAR

Live Position

Loading 3D Globe...

About Starlink 11236

Description loading...

Upcoming Passes

Passes for default location (London). Set your location on the main map for personalized predictions.

Altitude History

Loading altitude history...

Two-Line Element Set

1 61062U 24164N 26127.93884042 .00003019 00000-0 29750-4 0 9998
2 61062 53.1590 19.2612 0000370 83.5435 276.5625 15.69717247 94723
Epoch: May 7, 2026 • Age: 7 hours

Current Status

Altitude 378.2 km
Velocity 7.68 km/s
Sub-Earth Point -52.59°S, 37.67°W
Launch Date Sep 13, 2024
Age 1.6 years
Type internet

Technical Details

Classification Payload
Mass 960.00 kg
Dry Mass 910.00 kg
Total Mass 960.00 kg
Length 0.30 m
Diameter 4.10 m
Span 29.00 m
Shape Box + pan
Manufacturer SPXS
Bus Type Starlink V2MD
Phase Status In Orbit
Owner/State SPXS/US

Most Searched